Flag for U.S.A. Weather past 2 weeks in Metairie, Louisiana, U.S.A.

Now
75 °F

Mostly cloudy.


Feels Like: 75 °F
Forecast: 71 / 76 °F
Wind: No wind

Location: New Orleans International Airport

Current Time: Apr 18, 2015 at 1:03:34 AM

Latest Report: Apr 17, 2015 at 11:53 PM


Visibility: 10 mi

Pressure: 29.93 "Hg

Humidity: 85%

Dew point: 70 °F

Location of MetairieLocation

Historic Weather in Metairie — Graph

°F

Metairie temperature yesterday

Maximum temperature yesterday: 82 °F (at 3:53 PM)
Minimum temperature yesterday: 68 °F (at 3:53 AM)
Average temperature yesterday: 75 °F

Past Weeks' High & Low Weather Summary

 TemperatureHumidityPressure
High85 °F (Apr 3, 1:53 PM)94% (Apr 14, 3:53 AM)30.26 "Hg (Apr 14, 3:53 AM)
Low59 °F (Apr 4, 9:03 AM)39% (Apr 4, 7:53 PM)29.90 "Hg (Apr 17, 4:53 PM)
Average73 °F79%30.05 "Hg
* Reported Apr 2 11:53 PM — Apr 17 11:53 PM, Metairie, Weather by CustomWeather, © 2015

Note: Actual official high and low records may vary slightly from our data, if they occured in-between our weather recording intervals... More about our weather records

Advertising

Metairie weather history for previous 24 hours

 ConditionsComfort  
Time TempWeatherWind HumidityBarometerVisibility
11:53 PM
Fri, Apr 17
75 °FMostly cloudy.No wind85%29.93 "Hg10 mi
10:53 PM75 °FPartly cloudy.3 mph82%29.96 "Hg10 mi
9:53 PM75 °FPassing clouds.3 mph85%29.95 "Hg10 mi
8:53 PM76 °FPassing clouds.6 mph80%29.94 "Hg10 mi
7:53 PM77 °FOvercast.7 mph77%29.93 "Hg10 mi
6:53 PM79 °FOvercast.6 mph69%29.92 "Hg10 mi
5:53 PM81 °FPartly sunny.6 mph65%29.92 "Hg10 mi
4:53 PM81 °FPartly sunny.5 mph62%29.90 "Hg10 mi
3:53 PM82 °FScattered clouds.8 mph65%29.92 "Hg10 mi
2:53 PM81 °FBroken clouds.9 mph67%29.94 "Hg10 mi
1:53 PM80 °FBroken clouds.9 mph69%29.97 "Hg10 mi
12:53 PM77 °FBroken clouds.8 mph82%30.00 "Hg10 mi
12:01 PM76 °FPartly sunny.6 mph80%30.00 "Hg10 mi
10:53 AM76 °FBroken clouds.7 mph80%30.01 "Hg10 mi
9:53 AM74 °FPartly sunny.9 mph82%30.00 "Hg10 mi
8:53 AM73 °FBroken clouds.6 mph84%29.97 "Hg10 mi
7:53 AM71 °FBroken clouds.5 mph84%29.97 "Hg10 mi
6:53 AM69 °FPartly cloudy.No wind87%29.99 "Hg10 mi
5:53 AM69 °FPassing clouds.No wind87%30.01 "Hg10 mi
4:53 AM68 °FPassing clouds.6 mph90%30.00 "Hg10 mi
3:53 AM68 °FMostly cloudy.No wind90%30.00 "Hg10 mi
2:53 AM69 °FMostly cloudy.8 mph87%29.99 "Hg10 mi
1:53 AM70 °FMostly cloudy.12 mph87%30.02 "Hg10 mi
Weather by CustomWeather, © 2015

See weather overviewHow to use our weather pages